Flag for Germany Weather past 2 weeks in Göppingen, Baden-Württemberg, Germany

Now
80 °F

Clear.


Feels Like: 81 °F
Forecast: 67 / 81 °F
Wind: 7 mph from Southwest

Location: Stoetten

Current Time: Jul 6, 2015 at 12:16:21 AM

Latest Report: Jul 5, 2015 at 11:00 PM


Visibility: 16 mi

Pressure: 29.89 "Hg

Humidity: 52%

Dew point: 61 °F

Location of GöppingenLocation

Historic Weather in Göppingen — Graph

°F

Göppingen temperature yesterday

Maximum temperature yesterday: 90 °F (at 5:00 PM)
Minimum temperature yesterday: 76 °F (at 5:00 AM)
Average temperature yesterday: 83 °F

Past Weeks' High & Low Weather Summary

 TemperatureHumidityPressure
High90 °F (Jul 5, 5:00 PM)100% (Jun 22, 5:00 AM)30.23 "Hg (Jun 22, 5:00 AM)
Low44 °F (Jun 21, 2:00 AM)35% (Jun 30, 4:00 PM)29.74 "Hg (Jun 22, 10:00 PM)
Average65 °F67%30.09 "Hg
* Reported Jun 20 11:00 PM — Jul 5 11:00 PM, Göppingen, Weather by CustomWeather, © 2015

Note: Actual official high and low records may vary slightly from our data, if they occured in-between our weather recording intervals... More about our weather records

Advertising

Göppingen weather history for previous 24 hours

 ConditionsComfort  
Time TempWeatherWind HumidityBarometerVisibility
11:00 PM
Sun, Jul 5
80 °FClear.7 mph52%29.89 "Hg16 mi
10:00 PM82 °FClear.5 mph50%29.88 "Hg18 mi
9:00 PM83 °FSunny.3 mph47%29.85 "Hg19 mi
8:00 PM86 °FSunny.2 mph42%29.85 "Hg22 mi
7:00 PM89 °FSunny.2 mph39%29.86 "Hg19 mi
6:00 PM90 °FSunny.3 mph41%29.86 "Hg16 mi
5:00 PM90 °FScattered clouds.3 mph39%29.88 "Hg37 mi
4:00 PM89 °FScattered clouds.3 mph38%29.90 "Hg37 mi
3:00 PM89 °FScattered clouds.3 mph42%29.92 "Hg37 mi
2:00 PM89 °FScattered clouds.3 mph38%29.94 "Hg37 mi
1:00 PM88 °FScattered clouds.3 mph40%29.95 "Hg37 mi
12:00 PM87 °FPassing clouds.2 mph41%29.97 "Hg34 mi
11:00 AM84 °FPassing clouds.2 mph50%29.98 "Hg34 mi
10:00 AM84 °FPassing clouds.2 mph51%29.99 "Hg34 mi
9:00 AM83 °FPassing clouds.2 mph51%30.00 "Hg34 mi
8:00 AM81 °FPassing clouds.2 mph49%30.01 "Hg34 mi
7:00 AM78 °FPassing clouds.2 mph51%30.03 "Hg28 mi
5:00 AM76 °FClear.2 mph57%30.05 "Hg12 mi
4:00 AM76 °FClear.2 mph55%30.06 "Hg15 mi
3:00 AM77 °FClear.1 mph51%30.06 "Hg15 mi
2:00 AM79 °FClear.1 mph48%30.06 "Hg15 mi
1:00 AM79 °FClear.2 mph48%30.06 "Hg12 mi
12:00 AM79 °FClear.1 mph46%30.07 "Hg15 mi
Weather by CustomWeather, © 2015

See weather overviewHow to use our weather pages